OpenBCM V2.0.3 (Linux)

Packet Radio Mailbox

IZ3LSV

[San Dona' di P. JN]

 Login: GUEST





  
I0OJJ  > AMSAT    22.08.26 11:01l 328 Lines 15650 Bytes #999 (0) @ WW
BID : NXE6_IR0EQ
Read: GUEST
Subj: 2Line Orbital Elements
Path: IZ3LSV<IK6IHL<IK7NXU<HB9ON<HB9ON<PI8ZTM<VE3CGR<LU9DCE<EA2RCF<IR0EQ
Sent: 260819/0027z @:IR0EQ.ITA.EU [Rome] $:NXE6_IR0EQ

>From i0ojj@rgate.ampr.org Wed Aug 19 02:27:47 2026
Received: from rgate.ampr.org by rgate.ampr.org (JNOS2.0q.1) with SMTP
	id AA1116366 ; Wed, 19 Aug 2026 02:27:47 +0200
Received: by rgate.ampr.org with SMTP
	id AA1116363 ; Wed, 19 Aug 2026 02:27:03 +0200
Message-Id: <1116364@rgate.ampr.org>
>From: i0ojj@rgate.ampr.org

SB KEPS @ AMSAT  $ORB26231.1
2Line Orbital Elements 26231.AMSAT

QST de W1STR

AMSAT Orbital Elements for Amateur Satellites in TLE Format
>From Orbital Analysis Office
New England Sci-Tech STEM Education Center
Natick MA August 19, 2026
To all radio amateurs


These element sets describe the orbits of various satellites 
in use by the amateur radio community. For details see:
www.amsat.org/keplerian-elements-formats/

A daily update of element sets is available at:
www.amsat.org/tle/daily-bulletin.txt
or without bulletin text:
www.amsat.org/tle/dailytle.txt


AO-07
1 07530U 74089B   26230.55831667 -.00000049  00000-0 -14713-4 0  9992
2 07530 101.9919 244.4569 0012338  14.1475 108.2577 12.53699146368339
UO-11
1 14781U 84021B   26230.43871356  .00001189  00000-0  12615-3 0  9993
2 14781  97.8120 195.3435 0007228 350.8159   9.2925 14.90926544266409
LO-19
1 20442U 90005G   26230.48502982  .00000048  00000-0  33687-4 0  9990
2 20442  98.8843 254.0031 0012012  28.5905 331.5935 14.34138222911329
AO-27
1 22825U 93061C   26230.16182822  .00000056  00000-0  38406-4 0  9997
2 22825  98.6834 297.5385 0007221 279.7558  80.2809 14.30955880715860
FO-29
1 24278U 96046B   26230.48818277 -.00000040  00000-0 -16780-5 0  9999
2 24278  98.5195  70.8202 0348874 294.8502  61.6739 13.53276856481590
GO-32
1 25397U 98043D   26230.51017202  .00000025  00000-0  30874-4 0  9994
2 25397  99.0121 224.8551 0002161  61.0121 299.1274 14.24438580460203
ISS
1 25544U 98067A   26230.50196350  .00007616  00000-0  14375-3 0  9995
2 25544  51.6333 351.6800 0007608  59.6839 300.4901 15.49488657581410
NO-44
1 26931U 01043C   26230.60064833  .00000057  00000-0  52202-4 0  9999
2 26931  67.0497  82.8406 0005646 269.5909  90.4546 14.31975755299381
SO-50
1 27607U 02058C   26230.59513479  .00000744  00000-0  10522-3 0  9991
2 27607  64.5522 295.8794 0073337 251.0222 108.2927 14.83163453273716
CO-55
1 27844U 03031E   26230.48685391  .00000190  00000-0  10092-3 0  9994
2 27844  98.6761 238.2687 0009764  12.2890 347.8525 14.24368228200543
RS-22
1 27939U 03042A   26230.62260616  .00000196  00000-0  38460-4 0  9992
2 27939  98.3487  56.7572 0012535  72.1280  17.8702 14.73560367224745
CO-65
1 32785U 08021C   26230.61722663  .00004066  00000-0  25452-3 0  9999
2 32785  97.8342 213.3780 0009026 164.1026 196.0487 15.09951801994614
CO-66
1 32791U 08021J   26230.44093020  .00018734  00000-0  55917-3 0  9991
2 32791  97.7554 231.4167 0004937  92.5004 267.6804 15.34670403996839
RS-30
1 32953U 08025A   26230.62995642  .00000050  00000-0  28841-3 0  9994
2 32953  82.5071 316.6054 0019962 172.2470 187.8923 12.43182166827450
SRMSAT
1 37841U 11058D   26230.64134698  .00000357  00000-0  49838-4 0  9993
2 37841  19.9729  41.4403 0011663 170.8789 259.9499 14.11586961766654
ZACUBE-1
1 39417U 13066B   26230.58989646  .00004912  00000-0  37694-3 0  9996
2 39417  97.8022 193.2225 0042440  43.9687 316.4900 15.01547564690094
Delfi-N3xt
1 39428U 13066N   26230.20615221  .00007397  00000-0  63327-3 0  9994
2 39428  97.8300 150.4748 0073799   2.0404 358.1103 14.95762108683897
GOMX-1
1 39430U 13066Q   26230.48747642  .00000933  00000-0  14669-3 0  9994
2 39430  97.6448  67.0222 0126857 237.0281 121.8680 14.69609175679062
LO-74
1 39440U 13066AA  26230.41864273  .00002559  00000-0  23749-3 0  9993
2 39440  97.8945 179.6912 0056937 179.2852 180.8459 14.94128609686282
AO-73
1 39444U 13066AE  26230.48523643  .00007586  00000-0  46099-3 0  9995
2 39444  97.8336 203.2847 0035556 354.7904   5.2949 15.10244178689065
DTUSAT-2
1 40030U 14033W   26230.50521936  .00005945  00000-0  31565-3 0  9998
2 40030  98.0905 232.2344 0008718  34.2124 325.9667 15.15716188662128
LILACSAT-2
1 40908U 15049K   26230.60152809  .00018052  00000-0  28646-3 0  9999
2 40908  97.4598 269.8856 0007333  40.5979 319.5819 15.53396628605431
Lapan A3
1 41603U 16040E   26230.64658789  .00003027  00000-0  95809-4 0  9998
2 41603  97.1541 224.7702 0011238 142.6229 217.5798 15.33450013564388
CAS-2T
1 41847U 16066G   26230.15400663  .00000313  00000-0  54116-4 0  9999
2 41847  98.3784 305.1812 0340245 301.6482  55.1933 14.44807433513741
TechnoSat
1 42829U 17042E   26230.40960942  .00001847  00000-0  13315-3 0  9992
2 42829  97.4358  25.7411 0016037 238.7151 121.2506 15.05259176496060
AO-91
1 43017U 17073E   26230.56997232  .00008503  00000-0  36208-3 0  9997
2 43017  97.4613  96.5125 0149946 112.8166 248.8983 15.13500785474825
S-Net D
1 43186U 18014G   26230.20435118  .00004072  00000-0  20838-3 0  9990
2 43186  97.5281 134.6069 0008740 151.6666 208.5045 15.17164477468167
S-Net B
1 43187U 18014H   26230.54683123  .00004094  00000-0  20965-3 0  9994
2 43187  97.5289 134.9355 0009515 147.3173 212.8651 15.17134758468219
S-Net A
1 43188U 18014J   26230.53266208  .00003983  00000-0  20380-3 0  9992
2 43188  97.5297 135.1423 0009386 147.7596 212.4213 15.17174845468218
S-Net C
1 43189U 18014K   26230.22129669  .00004132  00000-0  21153-3 0  9994
2 43189  97.5317 134.9171 0010916 143.3365 216.8617 15.17122726466716
Ten-Koh
1 43677U 18084G   26230.50203466  .00001947  00000-0  14904-3 0  9999
2 43677  98.0741  65.4966 0008592 270.7070  89.3170 15.03146663425522
PO-101
1 43678U 18084H   26230.58472712  .00000962  00000-0  81184-4 0  9991
2 43678  98.1205  69.5374 0010538 327.5196  32.5377 15.00654852425575
QO-100
1 43700U 18090A   26229.82891838  .00000139  00000-0  00000-0 0  9993
2 43700   0.0190  99.3876 0002621  79.8857 111.1262  1.00275018 28292
MinXSS-2
1 43758U 18099A   26230.17100564  .00043259  00000-0  74062-3 0  9996
2 43758  97.4479 308.4527 0006585  49.9588 310.2241 15.51099621423725
AO-95
1 43770U 18099N   26230.12138004  .00009909  00000-0  36618-3 0  9994
2 43770  97.4329 290.1748 0010049 124.1943 236.0250 15.27879911422675
SNUSat 2
1 43782U 18099AA  26230.12242494  .00006364  00000-0  27573-3 0  9998
2 43782  97.4007 282.5740 0011828  81.7424 278.5154 15.22672447422456
SnugLite
1 43784U 18099AC  26230.62608901  .00010714  00000-0  39020-3 0  9998
2 43784  97.3814 284.3282 0004502  81.4592 278.7158 15.28372958422858
ITASat 1
1 43786U 18099AE  26230.58583019  .00005708  00000-0  26960-3 0  9993
2 43786  97.3977 280.8650 0013807 130.0726 230.1722 15.19730656422388
EAGLET 1
1 43790U 18099AJ  26230.54494170  .00003725  00000-0  21227-3 0  9991
2 43790  97.4181 278.5620 0012513 125.7175 234.5222 15.13341109421763
ESEO
1 43792U 18099AL  26230.50648289  .00001555  00000-0  11527-3 0  9992
2 43792  97.3943 265.2196 0013460 117.8102 242.4490 15.04407819421176
JO-97
1 43803U 18099AX  26229.91086240  .00014619  00000-0  42605-3 0  9997
2 43803  97.4071 293.0243 0006646  63.4014 296.7910 15.35460118423097
Suomi 100
1 43804U 18099AY  26230.11273306  .00011244  00000-0  39232-3 0  9996
2 43804  97.4132 290.3167 0011035  67.4000 292.8407 15.29718785422881
ISAT
1 43879U 18111D   26229.34194199  .00160444  00000-0  86850-3 0  9993
2 43879  97.5821 169.8827 0008690 100.9511 259.2734 15.79580726420778
UWE-4
1 43880U 18111E   26230.59408147  .00038399  00000-0  68834-3 0  9990
2 43880  97.5820 162.0334 0010106  95.9032 264.3371 15.49789031420437
Sparrow
1 43881U 18111F   26228.98401838  .16116594  28263-5  19760-3 0  9992
2 43881  97.5857 177.1140 0010462 202.8700 157.2139 16.49385238421037
Prox-1
1 44339U 19036A   26230.21774202  .00012761  00000-0  12028-2 0  9992
2 44339  23.9955  59.4438 0006207  34.4087 325.6814 14.91891517382741
Taurus 1
1 44530U 19059C   26230.55923492  .00004847  00000-0  76875-3 0  9991
2 44530  98.6479  39.3059 0009673 114.5836 245.6378 14.72653219367824
TO-108
1 44881U 19093C   26230.64358120  .00000721  00000-0  87258-4 0  9993
2 44881  97.7488 301.3420 0012074 238.8053 121.1980 14.86602076360692
RS-44
1 44909U 19096E   26230.15798186  .00000011  00000-0  23730-5 0  9991
2 44909  82.5223 298.5335 0217387 359.7948   0.3029 12.79748874310272
SALSAT
1 46495U 20068K   26230.52977528  .00006840  00000-0  23385-3 0  9994
2 46495  97.8883 237.4363 0011394  85.2768 274.9772 15.30573056324894
CSS (TIANHE-1)
1 48274U 21035A   26230.62348307  .00003122  00000-0  43037-4 0  9991
2 48274  41.4695 302.9948 0001360 251.2844 108.7847 15.59060695302913
TeikyoSat 4
1 49396U 21102B   26230.36176296  .00001572  00000-0  10118-3 0  9999
2 49396  97.3652 257.4276 0013733  80.7373 279.5410 15.09695096262102
Z-Sat
1 49399U 21102E   26230.60276882  .00002725  00000-0  13418-3 0  9998
2 49399  97.3295 264.0370 0017532  35.0556 325.1829 15.18680276262919
KOSEN 1
1 49402U 21102H   26230.58163756  .00006480  00000-0  24216-3 0  9995
2 49402  97.3145 271.5457 0012916 354.9208   5.1898 15.27617701263549
HO-113
1 50466U 21131B   26230.60015131  .00000355  00000-0  12311-3 0  9993
2 50466  98.4979 322.6529 0002866 272.2350  87.8511 14.41406033244108
SNUGLITE 2
1 52899U 22065F   26230.34625488  .00000734  00000-0  14782-3 0  9990
2 52899  98.2287  15.0991 0007472 178.9062 181.2158 14.64443862220090
UmKA 1 (RS40S)
1 57172U 23091G   26230.58675022  .00005058  00000-0  22814-3 0  9993
2 57172  97.4996 289.0539 0010793 259.6100 100.3920 15.21420535173494
CubeBel-2 (EU11S)
1 57175U 23091K   26230.58188413  .00012739  00000-0  43393-3 0  9998
2 57175  97.4995 294.4022 0007894 248.0151 112.0252 15.30501371173844
RS-38S
1 57189U 23091Z   26230.58411479  .00016731  00000-0  45213-3 0  9993
2 57189  97.5038 301.3877 0006738 192.6789 167.4288 15.37790326174279
